Location: Newark
(48.1500°N, 13.1167°E)
Time: 17:25:42
(UTC+00:00)

XW-2D - Pass Details

Date: 06 December 2021
Orbit: 502 x 522 km, 97.5° (Epoch: 17 January)

Event Time Altitude Azimuth Distance (km) Brightness Sun altitude
Rises 15:59:13 0° 160° (SSE) 2,615 ? -7.3°
Reaches altitude 10° 16:01:18 10° 158° (SSE) 1,737 ? -7.6°
Maximum altitude 16:05:02 70° 74° (ENE) 555 ? -8.2°
Drops below altitude 10° 16:08:49 10° 351° (N) 1,764 ? -8.8°
Sets 16:10:56 0° 350° (N) 2,660 ? -9.1°
